AA3CS-1 Weather Reports


time (UTC)temp
C
wind
direction
speed
KPH
gust
KPH
rain 1hr
cm
rain 24hr
cm
rain mn
cm
humidity
%
barometer
mb
20260510142517 11 338 3.2 11.3 0.00 0.51 0.00 62 1016.7
20260510142017 11 45 6.4 12.9 0.00 0.51 0.00 61 1016.7
20260510141517 11 45 4.8 14.5 0.00 0.51 0.00 61 1016.6
20260510141017 11 45 6.4 16.1 0.00 0.51 0.00 66 1016.7
20260510140517 11 45 6.4 16.1 0.00 0.51 0.00 62 1016.6
20260510140017 10 68 4.8 14.5 0.00 0.51 0.00 63 1016.6
20260510135517 10 23 3.2 8.0 0.00 0.51 0.00 70 1016.6
20260510135057 10 315 4.8 12.9 0.00 0.51 0.00 69 1016.7
20260510134538 10 315 3.2 12.9 0.00 0.51 0.00 73 1016.6
20260510134017 10 293 4.8 12.9 0.00 0.51 0.00 71 1016.5
20260510133517 10 293 3.2 11.3 0.00 0.51 0.00 72 1016.3
20260510133017 10 45 3.2 9.7 0.00 0.51 0.00 78 1016.3
20260510132517 9 0 1.6 6.4 0.00 0.51 0.00 81 1016.1
20260510132017 8 338 3.2 12.9 0.00 0.51 0.00 79 1015.9
20260510131517 8 315 4.8 12.9 0.00 0.51 0.00 78 1016.0
20260510131017 8 315 3.2 9.7 0.00 0.51 0.00 80 1015.9
20260510130517 8 0 3.2 14.5 0.00 0.51 0.00 83 1015.8
20260510130017 8 0 3.2 9.7 0.00 0.51 0.00 81 1015.7
20260510125517 8 23 3.2 9.7 0.00 0.51 0.00 81 1015.5
20260510125017 8 68 1.6 4.8 0.00 0.51 0.00 81 1015.4
20260510124517 8 23 3.2 8.0 0.00 0.51 0.00 81 1015.4
20260510124017 8 315 1.6 4.8 0.00 0.51 0.00 81 1015.4
20260510123517 8 45 1.6 8.0 0.00 0.51 0.00 80 1015.3
20260510123017 8 0 1.6 6.4 0.00 0.51 0.00 80 1015.3
20260510122517 8 0 1.6 6.4 0.00 0.51 0.00 80 1015.0
20260510122018 8 68 3.2 9.7 0.00 0.51 0.00 81 1015.0
20260510121517 8 0 1.6 4.8 0.00 0.51 0.00 83 1014.9
20260510121058 8 23 1.6 4.8 0.00 0.51 0.00 82 1014.7
20260510120538 8 23 1.6 6.4 0.00 0.51 0.00 82 1014.6
20260510120038 8 45 3.2 9.7 0.00 0.51 0.00 82 1014.5
20260510115517 8 0 3.2 6.4 0.00 0.51 0.00 83 1014.4
20260510115037 8 23 4.8 20.9 0.00 0.51 0.00 83 1014.7
20260510114517 8 45 1.6 6.4 0.00 0.51 0.00 84 1014.4
20260510114057 8 0.0 3.2 0.00 0.51 0.00 84 1014.6
20260510113517 8 45 1.6 6.4 0.00 0.51 0.00 84 1014.4
20260510113017 8 45 1.6 8.0 0.00 0.51 0.00 85 1014.4
20260510112517 8 23 1.6 4.8 0.00 0.51 0.00 85 1014.2
20260510112037 8 0.0 4.8 0.00 0.51 0.00 85 1014.2
20260510111517 8 0.0 3.2 0.00 0.51 0.00 85 1014.1
20260510111017 8 23 1.6 6.4 0.00 0.51 0.00 85 1013.9
20260510110538 7 23 1.6 6.4 0.00 0.51 0.00 85 1013.7
20260510110017 7 0.0 3.2 0.00 0.51 0.00 85 1013.7
20260510105517 7 0.0 4.8 0.00 0.51 0.00 85 1013.7
20260510105017 7 0.0 3.2 0.00 0.51 0.00 84 1013.5
20260510104537 7 0.0 3.2 0.00 0.51 0.00 84 1013.5
20260510104017 7 0.0 3.2 0.00 0.51 0.00 84 1013.3
20260510103516 7 23 1.6 3.2 0.00 0.51 0.00 84 1013.2
20260510103037 7 0.0 3.2 0.00 0.51 0.00 83 1013.0
20260510102516 7 0.0 1.6 0.00 0.51 0.00 83 1012.7
20260510102017 7 0.0 3.2 0.00 0.51 0.00 83 1013.1
20260510101516 7 0.0 0.0 0.00 0.51 0.00 83 1012.8
20260510101017 7 0.0 1.6 0.00 0.51 0.00 83 1012.8
20260510100517 7 0.0 6.4 0.00 0.53 0.00 83 1012.8
20260510100017 7 0.0 1.6 0.00 0.53 0.00 84 1012.8
20260510095537 7 0.0 0.0 0.00 0.56 0.00 84 1012.7
20260510095017 7 0.0 3.2 0.00 0.56 0.00 84 1012.8
20260510094517 7 0.0 1.6 0.00 0.56 0.00 84 1012.8
20260510094017 7 0.0 0.0 0.00 0.56 0.00 84 1012.6
20260510093517 7 0.0 0.0 0.00 0.56 0.00 84 1012.6
20260510093017 7 0.0 3.2 0.00 0.56 0.00 83 1012.4
20260510092517 7 0.0 0.0 0.00 0.56 0.00 83 1012.3
20260510092017 7 0.0 0.0 0.00 0.56 0.00 83 1012.3
20260510091517 7 0.0 0.0 0.00 0.56 0.00 83 1012.3
20260510091016 7 0.0 3.2 0.00 0.56 0.00 83 1012.1
20260510090517 7 0.0 0.0 0.00 0.56 0.00 81 1011.9
20260510090037 7 0.0 3.2 0.00 0.56 0.00 80 1011.8
20260510085517 8 0.0 3.2 0.00 0.56 0.00 81 1011.8
20260510085017 8 68 1.6 4.8 0.00 0.56 0.00 80 1011.6
20260510084516 8 0.0 4.8 0.00 0.56 0.00 81 1011.5
20260510084016 8 45 1.6 6.4 0.00 0.56 0.00 82 1011.4
20260510083556 8 45 1.6 6.4 0.00 0.56 0.00 81 1011.3
20260510083017 8 45 1.6 8.0 0.00 0.56 0.00 82 1011.4
20260510082517 8 45 3.2 6.4 0.00 0.56 0.00 82 1011.2
20260510082016 8 23 1.6 3.2 0.00 0.56 0.00 82 1011.3
20260510081516 8 0.0 4.8 0.00 0.56 0.00 83 1011.4
20260510081037 8 23 1.6 6.4 0.00 0.56 0.00 83 1011.3
20260510080557 8 315 1.6 6.4 0.00 0.56 0.00 83 1011.4
20260510080017 9 315 1.6 8.0 0.00 0.56 0.00 85 1011.2
20260510075517 9 315 1.6 6.4 0.00 0.56 0.00 85 1011.3
20260510075017 9 68 1.6 6.4 0.00 0.56 0.00 85 1011.2
20260510074516 10 23 3.2 12.9 0.00 0.56 0.00 85 1010.9
20260510074017 10 23 1.6 6.4 0.00 0.56 0.00 87 1010.9
20260510073517 10 23 1.6 6.4 0.00 0.58 0.00 87 1010.9
20260510073016 10 315 3.2 6.4 0.00 0.61 0.00 88 1010.9
20260510072516 10 0 1.6 6.4 0.00 0.64 0.00 89 1010.9
20260510072016 10 0 1.6 6.4 0.00 0.69 0.00 90 1010.7
20260510071517 10 45 1.6 6.4 0.00 0.71 0.00 90 1010.6
20260510071016 10 338 1.6 6.4 0.00 0.74 0.00 90 1010.5
20260510070517 10 338 3.2 9.7 0.00 0.81 0.00 91 1010.4
20260510070037 10 338 1.6 8.0 0.00 0.81 0.00 92 1010.4
20260510065516 10 293 1.6 9.7 0.00 0.91 0.00 92 1010.2
20260510065016 10 0.0 3.2 0.00 0.99 0.00 92 1010.1
20260510064517 10 270 3.2 6.4 0.00 1.02 0.00 92 1010.0
20260510064017 10 270 3.2 6.4 0.00 1.02 0.00 93 1009.9
20260510063517 10 270 1.6 4.8 0.00 1.02 0.00 91 1009.7
20260510063016 10 248 1.6 3.2 0.00 1.04 0.00 92 1009.9
20260510062516 10 0.0 3.2 0.00 1.04 0.00 92 1009.8
20260510062036 10 0.0 1.6 0.00 1.07 0.00 91 1009.6
20260510061516 10 0.0 3.2 0.00 1.07 0.00 91 1009.6
20260510061037 10 0.0 0.0 0.00 1.09 0.00 91 1009.6
20260510060517 11 0.0 1.6 0.00 1.14 0.00 91 1009.7
20260510060017 11 248 1.6 3.2 0.00 1.14 0.00 91 1009.7
20260510055516 11 158 1.6 6.4 0.00 1.17 0.00 91 1009.7
20260510055037 11 0.0 3.2 0.00 1.17 0.00 91 1009.8
20260510054516 11 0.0 3.2 0.00 1.17 0.00 91 1009.7
20260510054017 11 158 1.6 4.8 0.00 1.19 0.00 90 1009.6
20260510053536 11 0.0 3.2 0.00 1.22 0.00 90 1009.5
20260510053016 11 0.0 3.2 0.00 1.24 0.00 90 1009.5
20260510052516 11 158 1.6 8.0 0.00 1.24 0.00 90 1009.3
20260510052016 11 158 1.6 9.7 0.00 1.24 0.00 90 1009.2
20260510051537 11 135 3.2 8.0 0.00 1.24 0.00 91 1009.3
20260510051017 11 180 3.2 8.0 0.00 1.27 0.00 90 1009.3
20260510050517 11 180 4.8 16.1 0.00 1.35 0.00 91 1009.3
20260510050016 11 158 3.2 9.7 0.00 1.42 0.00 91 1009.3
20260510045516 11 158 1.6 11.3 0.00 1.50 0.00 91 1009.0
20260510045016 11 135 1.6 11.3 0.00 1.60 0.00 91 1008.8
20260510044516 11 135 1.6 4.8 0.00 1.63 0.00 91 1008.8
20260510044016 10 135 1.6 6.4 0.00 1.63 0.00 91 1008.8
20260510043516 10 158 1.6 3.2 0.00 1.65 0.00 90 1008.8
20260510043016 11 158 1.6 3.2 0.00 1.65 0.00 90 1008.9
20260510042517 11 158 3.2 6.4 0.00 1.68 0.00 90 1008.8
20260510042016 11 158 1.6 3.2 0.00 1.68 0.00 90 1008.8
20260510041516 11 158 1.6 6.4 0.00 1.68 0.00 90 1008.8
20260510041016 11 158 3.2 6.4 0.00 1.68 0.00 90 1008.8
20260510040516 11 158 1.6 6.4 0.00 1.68 0.00 89 1008.9
20260510040016 11 0.0 3.2 0.00 1.70 1.70 89 1009.0
20260510035556 11 158 1.6 3.2 0.00 1.73 1.70 89 1009.0
20260510035016 12 0.0 0.0 0.03 1.73 1.70 90 1008.9
20260510034517 12 158 1.6 3.2 0.03 1.73 1.70 89 1008.8
20260510034016 12 158 4.8 9.7 0.03 1.73 1.70 89 1008.7
20260510033517 12 315 6.4 16.1 0.03 1.73 1.70 89 1009.1
20260510033017 12 315 1.6 9.7 0.03 1.73 1.70 90 1008.8
20260510032517 12 0.0 1.6 0.03 1.73 1.70 90 1008.3
20260510032036 11 113 3.2 6.4 0.03 1.73 1.70 90 1008.2
20260510031516 11 158 3.2 6.4 0.03 1.73 1.70 91 1008.4
20260510031016 11 158 1.6 3.2 0.03 1.73 1.70 91 1008.6
20260510030516 11 0.0 3.2 0.03 1.75 1.70 90 1008.4
20260510030016 11 0.0 3.2 0.03 1.75 1.70 90 1008.4
20260510025516 11 0.0 3.2 0.03 1.75 1.70 91 1008.7
20260510025016 11 0.0 4.8 0.00 1.73 1.68 91 1008.9
20260510024516 11 0.0 1.6 0.00 1.73 1.68 91 1009.0
20260510024017 11 180 1.6 3.2 0.00 1.73 1.68 91 1008.8
20260510023536 11 0.0 0.0 0.00 1.73 1.68 92 1008.8
20260510023016 11 0.0 1.6 0.00 1.73 1.68 92 1008.7
20260510022537 11 0.0 0.0 0.00 1.73 1.68 92 1008.5
20260510022016 11 0.0 3.2 0.00 1.75 1.68 92 1008.2
20260510021517 11 0.0 3.2 0.00 1.75 1.68 92 1008.0
20260510021036 11 180 1.6 3.2 0.00 1.75 1.68 92 1007.9
20260510020517 11 0.0 3.2 0.00 1.78 1.68 92 1007.8
20260510020016 11 0.0 3.2 0.00 1.78 1.68 92 1007.7
20260510015516 11 0.0 0.0 0.00 1.78 1.68 92 1007.8
20260510015017 11 0.0 0.0 0.00 1.78 1.68 92 1007.7
20260510014557 11 0.0 0.0 0.00 1.80 1.68 91 1007.6
20260510014017 11 0.0 0.0 0.00 1.80 1.68 91 1007.5
20260510013536 11 0.0 0.0 0.00 1.80 1.68 90 1007.6
20260510013016 11 0.0 0.0 0.00 1.80 1.68 90 1007.4
20260510012516 11 0.0 0.0 0.00 1.83 1.68 90 1007.4
20260510012056 11 0.0 0.0 0.00 1.83 1.68 90 1007.2
20260510011516 11 0.0 0.0 0.00 1.83 1.68 90 1007.1
20260510011056 11 0.0 0.0 0.00 1.83 1.68 89 1007.1
20260510010537 11 0.0 3.2 0.00 1.85 1.68 89 1007.1
20260510010016 12 0.0 3.2 0.03 1.85 1.68 90 1007.0
20260510005537 12 0.0 3.2 0.05 1.85 1.68 90 1007.0
20260510005016 12 180 3.2 8.0 0.08 1.85 1.68 89 1007.0
20260510004516 12 180 3.2 11.3 0.10 1.85 1.68 89 1007.2
20260510004016 12 203 1.6 6.4 0.13 1.88 1.68 89 1007.2
20260510003516 12 0.0 3.2 0.20 1.88 1.68 89 1007.3
20260510003016 12 0.0 3.2 0.36 1.88 1.68 89 1007.2
20260510002516 12 0.0 4.8 0.48 1.88 1.68 88 1007.2
20260510002016 12 0.0 3.2 0.48 1.91 1.68 88 1007.1
20260510001516 12 0.0 4.8 0.48 1.91 1.68 88 1007.2
20260510001016 12 225 1.6 6.4 0.48 1.93 1.68 88 1007.4
20260510000516 12 248 8.0 24.1 0.48 1.93 1.68 87 1007.5
20260510000016 12 270 12.9 29.0 0.46 1.91 1.65 87 1007.3
20260509235516 12 293 11.3 19.3 0.43 1.91 1.60 87 1007.5
20260509235016 12 315 11.3 22.5 0.41 1.88 1.60 87 1007.4
20260509234516 12 293 12.9 25.7 0.38 1.88 1.57 86 1007.3
20260509234036 12 315 11.3 22.5 0.36 1.85 1.55 84 1007.3
20260509233516 12 315 17.7 33.8 0.28 1.80 1.47 82 1007.5
20260509233016 14 315 22.5 49.9 0.13 1.65 1.32 74 1007.3
20260509232536 17 270 19.3 46.7 0.00 1.55 1.19 61 1007.1
20260509232016 18 203 6.4 16.1 0.00 1.55 1.19 58 1006.1
20260509231536 18 203 4.8 14.5 0.00 1.55 1.19 57 1005.7
20260509231036 18 180 6.4 16.1 0.00 1.55 1.19 57 1005.6
20260509230516 18 203 8.0 25.7 0.00 1.55 1.19 58 1005.5
20260509230016 18 225 8.0 22.5 0.00 1.55 1.19 57 1005.4
20260509225516 18 203 6.4 20.9 0.00 1.55 1.19 57 1005.4
20260509225016 18 203 6.4 16.1 0.00 1.55 1.19 57 1005.4
20260509224516 18 180 8.0 24.1 0.00 1.57 1.19 57 1005.4
20260509224016 18 180 9.7 20.9 0.00 1.57 1.19 56 1005.3
20260509223536 19 203 11.3 30.6 0.00 1.57 1.19 56 1005.2
20260509223016 19 203 9.7 20.9 0.00 1.57 1.19 55 1005.2
20260509222616 18 203 8.0 17.7 0.00 1.57 1.19 56 1005.3
20260509222016 19 180 11.3 30.6 0.00 1.57 1.19 54 1005.4
20260509221516 19 203 9.7 27.4 0.00 1.57 1.19 53 1005.3
20260509221017 20 180 11.3 29.0 0.00 1.57 1.19 54 1005.3
20260509220516 20 180 11.3 32.2 0.00 1.57 1.19 54 1005.3
20260509220016 20 203 12.9 37.0 0.00 1.57 1.19 52 1005.4
20260509215516 20 180 8.0 27.4 0.00 1.57 1.19 54 1005.5
20260509215016 20 203 9.7 24.1 0.00 1.57 1.19 52 1005.5
20260509214516 20 203 9.7 29.0 0.00 1.57 1.19 55 1005.4
20260509214016 20 180 16.1 32.2 0.00 1.57 1.19 53 1005.3
20260509213536 20 180 8.0 20.9 0.00 1.57 1.19 55 1005.4
20260509213016 20 180 8.0 20.9 0.00 1.57 1.19 54 1005.4
20260509212516 20 203 9.7 22.5 0.00 1.57 1.19 53 1005.6
20260509212036 20 180 8.0 19.3 0.00 1.57 1.19 54 1005.6
20260509211516 20 203 9.7 24.1 0.00 1.57 1.19 52 1005.6
20260509211036 20 203 12.9 24.1 0.00 1.57 1.19 53 1005.8
20260509210515 20 203 11.3 29.0 0.00 1.57 1.19 55 1005.9
20260509210016 20 180 11.3 25.7 0.00 1.57 1.19 53 1006.0
20260509205516 20 180 14.5 32.2 0.00 1.57 1.19 53 1006.1
20260509205016 20 203 6.4 22.5 0.00 1.57 1.19 54 1006.2
20260509204516 20 180 9.7 33.8 0.00 1.57 1.19 57 1006.3
20260509204016 20 158 6.4 19.3 0.00 1.57 1.19 56 1006.2
20260509203516 20 180 4.8 16.1 0.00 1.57 1.19 56 1006.2
20260509203016 20 180 11.3 24.1 0.00 1.57 1.19 53 1006.3
20260509202515 20 203 8.0 22.5 0.00 1.57 1.19 58 1006.5
20260509202015 20 203 9.7 25.7 0.00 1.57 1.19 58 1006.5
20260509201516 20 180 9.7 20.9 0.00 1.57 1.19 56 1006.5
20260509201016 20 203 8.0 19.3 0.00 1.57 1.19 58 1006.7
20260509200516 20 203 11.3 29.0 0.00 1.60 1.19 55 1006.9
20260509200016 20 180 9.7 22.5 0.00 1.60 1.19 60 1007.1
20260509195516 20 180 8.0 19.3 0.00 1.63 1.19 60 1006.9
20260509195016 19 225 9.7 20.9 0.00 1.63 1.19 59 1006.9
20260509194536 19 203 12.9 29.0 0.00 1.63 1.19 57 1007.0
20260509194015 19 180 9.7 30.6 0.00 1.65 1.19 59 1006.9
20260509193516 19 203 9.7 22.5 0.00 1.68 1.19 61 1007.0
20260509193036 19 180 11.3 32.2 0.00 1.68 1.19 60 1007.2
20260509192516 20 180 9.7 30.6 0.00 1.70 1.19 59 1007.1
20260509192016 19 225 6.4 19.3 0.00 1.70 1.19 58 1007.3
20260509191516 19 248 9.7 25.7 0.00 1.70 1.19 59 1007.4
20260509191016 18 203 8.0 19.3 0.00 1.70 1.19 61 1007.5
20260509190516 18 225 8.0 19.3 0.00 1.70 1.19 57 1007.5
20260509190015 18 225 4.8 12.9 0.00 1.70 1.19 63 1007.6
20260509185515 18 225 4.8 12.9 0.00 1.70 1.19 61 1007.5
20260509185016 18 225 6.4 17.7 0.00 1.70 1.19 60 1007.5
20260509184516 18 248 8.0 20.9 0.00 1.70 1.19 60 1007.4
20260509184016 18 203 6.4 19.3 0.00 1.70 1.19 60 1007.5
20260509183515 18 203 8.0 17.7 0.00 1.70 1.19 60 1007.4
20260509183015 18 180 9.7 27.4 0.00 1.70 1.19 62 1007.4
20260509182516 18 180 8.0 19.3 0.00 1.70 1.19 64 1007.5
20260509182015 17 180 9.7 29.0 0.00 1.70 1.19 63 1007.5
20260509181516 17 203 8.0 24.1 0.00 1.70 1.19 63 1007.6
20260509181015 17 203 6.4 22.5 0.00 1.70 1.19 63 1007.5
20260509180515 17 180 8.0 19.3 0.00 1.70 1.19 67 1007.5
20260509180016 17 225 4.8 9.7 0.00 1.73 1.19 62 1007.4
20260509175515 17 203 6.4 17.7 0.00 1.75 1.19 66 1007.6
20260509175036 17 180 6.4 19.3 0.00 1.75 1.19 65 1007.6
20260509174516 17 203 6.4 19.3 0.00 1.78 1.19 64 1007.8
20260509174035 17 180 6.4 16.1 0.00 1.78 1.19 69 1007.8
20260509173536 17 158 4.8 17.7 0.00 1.78 1.19 66 1007.9
20260509173016 17 225 4.8 14.5 0.00 1.78 1.19 66 1007.8
20260509172515 17 225 4.8 16.1 0.00 1.78 1.19 69 1007.8
20260509172015 17 180 6.4 14.5 0.00 1.78 1.19 65 1007.6
20260509171515 17 225 8.0 20.9 0.00 1.78 1.19 64 1007.5
20260509171015 17 203 8.0 17.7 0.00 1.78 1.19 67 1007.6
20260509170516 17 180 12.9 27.4 0.00 1.78 1.19 64 1007.6
20260509170015 16 203 4.8 17.7 0.00 1.78 1.19 69 1007.4
20260509165516 16 248 4.8 11.3 0.00 1.78 1.19 68 1007.6
20260509165016 16 203 6.4 12.9 0.00 1.78 1.19 68 1007.6
20260509164517 16 203 6.4 16.1 0.00 1.78 1.19 68 1007.6
20260509164038 16 180 3.2 12.9 0.00 1.78 1.19 74 1007.8
20260509163518 16 180 4.8 12.9 0.00 1.78 1.19 70 1007.9
20260509163018 16 225 3.2 8.0 0.00 1.78 1.19 71 1008.0
20260509162518 16 203 4.8 17.7 0.00 1.78 1.19 67 1008.0
20260509162018 16 180 4.8 11.3 0.00 1.78 1.19 71 1008.0
20260509161517 16 203 3.2 12.9 0.00 1.78 1.19 69 1008.0
20260509161017 16 270 4.8 16.1 0.00 1.78 1.19 70 1007.9
20260509160517 16 203 4.8 12.9 0.00 1.78 1.19 72 1008.0
20260509160017 16 203 8.0 20.9 0.00 1.78 1.19 69 1008.0
20260509155517 16 180 9.7 19.3 0.00 1.78 1.19 71 1008.0
20260509155017 16 180 6.4 17.7 0.00 1.78 1.19 73 1008.0
20260509154517 15 270 4.8 12.9 0.00 1.78 1.19 74 1008.0
20260509154017 16 180 3.2 11.3 0.00 1.78 1.19 78 1008.0
20260509153517 15 180 4.8 11.3 0.00 1.78 1.19 74 1008.0
20260509153017 15 248 4.8 12.9 0.00 1.78 1.19 76 1008.0
20260509152538 15 203 4.8 19.3 0.00 1.78 1.19 78 1007.9
20260509152017 15 270 3.2 12.9 0.00 1.78 1.19 81 1007.9
20260509151517 14 293 3.2 8.0 0.00 1.78 1.19 83 1007.9
20260509151017 13 180 3.2 8.0 0.00 1.78 1.19 82 1007.9
20260509150517 13 225 4.8 22.5 0.00 1.78 1.19 79 1007.9
20260509150017 14 248 4.8 12.9 0.00 1.78 1.19 79 1007.8
20260509145517 15 180 4.8 16.1 0.00 1.78 1.19 79 1007.8
20260509145017 15 203 6.4 16.1 0.00 1.78 1.19 81 1007.7
20260509144517 15 203 6.4 19.3 0.00 1.78 1.19 82 1007.7
20260509144017 14 180 3.2 11.3 0.00 1.78 1.19 85 1007.7
20260509143517 13 180 3.2 12.9 0.00 1.78 1.19 87 1007.7
20260509143017 13 180 4.8 9.7 0.00 1.78 1.19 89 1007.6